This demonstration page uses our WeatherBlox Daily Observations layout. Learn more.

Left ArrowRight Arrow

44.89941, -97.11507

Hourly Observations for July 13, 2016

Temp ( °F °C ) Dew Point ( °F °C ) Humidity (%) Winds ( mph kmh ) Pressure ( in mb ) Visibility ( mi km ) Precip ( " mm )
12:53 am 00:53 Clear 67 19.4 56 13.3 68 68 SSW 9 15 29.73 1007 10 16 0.00 0.00
1:53 am 01:53 Clear 65 18.3 56 13.3 73 73 SSW 9 15 29.73 1007 10 16 0.00 0.00
2:53 am 02:53 Clear 63 17.2 56 13.3 78 78 W 7 11 29.74 1007 10 16 0.00 0.00
3:53 am 03:53 Clear 63 17.2 54 12.2 73 73 W 9 15 29.73 1007 10 16 0.00 0.00
4:53 am 04:53 Clear 66 18.9 52 11.1 61 61 WNW 10 17 29.73 1007 10 16 0.00 0.00
5:53 am 05:53 Mostly Clear 60 15.6 52 11.1 75 75 SW 7 11 29.76 1008 10 16 0.00 0.00
6:53 am 06:53 Mostly Sunny 65 18.3 53 11.7 66 66 WNW 10 17 29.74 1007 10 16 0.00 0.00
7:53 am 07:53 Sunny 68 20 54 12.2 61 61 WNW 12 19 29.75 1007 10 16 0.00 0.00
8:53 am 08:53 Sunny 70 21.1 54 12.2 57 57 WNW 13 20 29.76 1008 10 16 0.00 0.00
9:53 am 09:53 Sunny 73 22.8 55 12.8 53 53 WNW 17 28 29.77 1008 10 16 0.00 0.00
11:53 am 11:53 Sunny 77 25 55 12.8 47 47 W 23 37 29.79 1009 10 16 0.00 0.00
12:53 pm 12:53 Sunny 79 26.1 55 12.8 44 44 WNW 20 31 29.79 1009 10 16 0.00 0.00
1:53 pm 13:53 Sunny 80 26.7 54 12.2 41 41 WNW 22 35 29.80 1009 10 16 0.00 0.00
2:53 pm 14:53 Partly Cloudy 79 26.1 54 12.2 42 42 WNW 16 26 29.81 1009 10 16 0.00 0.00
3:53 pm 15:53 Mostly Sunny 81 27.2 53 11.7 38 38 WNW 17 28 29.80 1009 10 16 0.00 0.00
5:53 pm 17:53 Mostly Sunny 80 26.7 53 11.7 39 39 WNW 15 24 29.80 1009 10 16 0.00 0.00
6:53 pm 18:53 Sunny 80 26.7 52 11.1 38 38 WNW 17 28 29.79 1009 10 16 0.00 0.00
7:53 pm 19:53 Sunny 78 25.6 52 11.1 40 40 WNW 12 19 29.80 1009 10 16 0.00 0.00
8:53 pm 20:53 Sunny 74 23.3 54 12.2 50 50 NW 10 17 29.83 1010 10 16 0.00 0.00
9:53 pm 21:53 Clear 70 21.1 55 12.8 59 59 WNW 6 9 29.85 1011 10 16 0.00 0.00
10:53 pm 22:53 Clear 65 18.3 56 13.3 73 73 W 7 11 29.87 1012 10 16 0.00 0.00
11:53 pm 23:53 Clear 62 16.7 56 13.3 80 80 W 6 9 29.88 1012 10 16 0.00 0.00

Powered by AerisWeather